Погода в Сенче

Украина / Полтавская область     50°15′14″N   33°20′10″E
темп.,
°C
ветер,
м/с
пор.,
м/с
влажн.,
%
обл.,
%
осадки,
мм/ч
давл.,
гПа
погр.,
м
29 июня, ср
ср2900:00+20св2278100 0.1 101826
03:00+19св347648 0.1 101863
06:00+19св348797 0.0 101898
09:00+25вюв44688 0.0 1018500
12:00+28вюв4454100 0.0 10181167
15:00+28в4352100 0.0 10171355
18:00+27вюв445674 0.0 1016938
21:00+23в51168100 0.0 1016334
30 июня, чт
чт3000:00+18в3397100 12.3 101794
03:00+18вюв4895100 12.9 1016274
06:00+18вюв379399 0.5 1016253
09:00+19вюв467151 0.7 1017472
12:00+19вюв676747 0.0 1018707
15:00+22в44550 0.0 10171063
18:00+23всв456217 0.0 10161166
21:00+19вюв23800 0.0 101732
1 июля, пт
пт100:00+16в118821 0.0 101811
03:00+16ссв23930 0.0 101834
06:00+16ссв24920 0.0 1019109
09:00+21св45600 0.0 1019526
12:00+24св55480 0.0 10191724
15:00+26св55420 0.0 10192168
18:00+25ссв45490 0.0 10191789
21:00+19св46710 0.0 1020104
2 июля, сб
сб200:00+16всв34750 0.0 102151
03:00+15св22755 0.0 102111
06:00+15ссв34750 0.0 102268
09:00+22ссв34570 0.0 1022460
12:00+25ссв34460 0.0 10221647
15:00+27с344039 0.0 10212313
18:00+27ссз45469 0.0 10202110
21:00+21с33650 0.0 102039
3 июля, вс
вс300:00+20ссз34639 0.0 102153
03:00+18ссз357197 0.0 102071
06:00+18ссз3572100 0.0 102095
09:00+24ссз355661 0.0 1020448
12:00+28ссз444366 0.0 10191713
15:00+29ссз443895 0.0 10192110
18:00+28с334115 0.0 10182012
21:00+23ссв336315 0.0 101828